| time (UTC) | temp F | wind direction | speed knots | gust knots | rain 1hr in | rain 24hr in | rain mn in | humidity % | barometer mb |
| 20260505011354 | 52 | 0.0 | 0.0 | 0.00 | 0.00 | 0.00 | 69 | 1008.3 | |
| 20260505010858 | 52 | 0.0 | 0.0 | 0.00 | 0.00 | 0.00 | 69 | 1008.2 | |
| 20260505010339 | 52 | 0.0 | 0.0 | 0.00 | 0.00 | 0.00 | 69 | 1008.2 | |
| 20260505005900 | 53 | 0.0 | 0.0 | 0.00 | 0.00 | 0.00 | 68 | 1008.1 | |
| 20260505005343 | 53 | 0.0 | 0.0 | 0.00 | 0.00 | 0.00 | 68 | 1008.1 | |
| 20260505004847 | 52 | 0.0 | 0.0 | 0.00 | 0.00 | 0.00 | 69 | 1008.1 | |
| 20260505004332 | 52 | 0.0 | 0.0 | 0.00 | 0.00 | 0.00 | 69 | 1008.1 | |
| 20260505003857 | 52 | 0.0 | 0.0 | 0.00 | 0.00 | 0.00 | 70 | 1007.9 | |
| 20260505003401 | 51 | 0.0 | 0.0 | 0.00 | 0.00 | 0.00 | 71 | 1008.0 | |
| 20260505002846 | 51 | 0.0 | 0.0 | 0.00 | 0.00 | 0.00 | 71 | 1007.9 | |
| 20260505002330 | 51 | 0.0 | 0.0 | 0.00 | 0.00 | 0.00 | 71 | 1007.8 | |
| 20260505001855 | 51 | 0.0 | 0.0 | 0.00 | 0.00 | 0.00 | 71 | 1007.8 | |
| 20260505001322 | 51 | 0.0 | 0.0 | 0.00 | 0.00 | 0.00 | 70 | 1007.8 | |
| 20260505000827 | 51 | 0.0 | 0.0 | 0.00 | 0.00 | 0.00 | 70 | 1007.7 | |
| 20260505000331 | 51 | 0.0 | 0.0 | 0.00 | 0.00 | 0.00 | 70 | 1007.6 | |
| 20260504235831 | 51 | 0.0 | 0.0 | 0.00 | 0.00 | 0.00 | 69 | 1007.6 | |
| 20260504235336 | 51 | 0.0 | 0.0 | 0.00 | 0.00 | 0.00 | 69 | 1007.6 | |
| 20260504234840 | 52 | 0.0 | 0.0 | 0.00 | 0.00 | 0.00 | 68 | 1007.5 | |
| 20260504234325 | 52 | 0.0 | 0.0 | 0.00 | 0.00 | 0.00 | 68 | 1007.4 | |
| 20260504233830 | 52 | 0.0 | 0.0 | 0.00 | 0.00 | 0.00 | 67 | 1007.3 | |
| 20260504233355 | 53 | 0.0 | 0.0 | 0.00 | 0.00 | 0.00 | 67 | 1007.1 | |
| 20260504232859 | 53 | 0.0 | 0.0 | 0.00 | 0.00 | 0.00 | 67 | 1007.0 | |
| 20260504232322 | 53 | 0.0 | 0.0 | 0.00 | 0.00 | 0.00 | 67 | 1006.8 | |
| 20260504231402 | 53 | 138 | 2.6 | 6.1 | 0.00 | 0.00 | 0.00 | 66 | 1006.8 |
| 20260504230825 | 54 | 111 | 3.5 | 6.1 | 0.00 | 0.00 | 0.00 | 66 | 1006.8 |
| 20260504230350 | 54 | 142 | 4.3 | 7.0 | 0.00 | 0.00 | 0.00 | 66 | 1006.7 |
| 20260504225830 | 54 | 118 | 2.6 | 5.2 | 0.00 | 0.00 | 0.00 | 65 | 1006.6 |
| 20260504225355 | 55 | 191 | 1.7 | 6.1 | 0.00 | 0.00 | 0.00 | 65 | 1006.5 |
| 20260504224858 | 56 | 131 | 1.7 | 6.1 | 0.00 | 0.00 | 0.00 | 64 | 1006.5 |
| 20260504224325 | 56 | 229 | 0.9 | 3.5 | 0.00 | 0.00 | 0.00 | 64 | 1006.5 |
| 20260504223852 | 57 | 206 | 1.7 | 4.3 | 0.00 | 0.00 | 0.00 | 62 | 1006.5 |
| 20260504223334 | 57 | 182 | 0.9 | 4.3 | 0.00 | 0.00 | 0.00 | 61 | 1006.5 |
| 20260504222839 | 58 | 191 | 1.7 | 4.3 | 0.00 | 0.00 | 0.00 | 60 | 1006.6 |
| 20260504222322 | 58 | 190 | 1.7 | 5.2 | 0.00 | 0.00 | 0.00 | 58 | 1006.5 |
| 20260504221827 | 59 | 189 | 3.5 | 5.2 | 0.00 | 0.00 | 0.00 | 57 | 1006.5 |
| 20260504221332 | 59 | 161 | 2.6 | 5.2 | 0.00 | 0.00 | 0.00 | 57 | 1006.5 |
| 20260504220857 | 59 | 202 | 2.6 | 6.1 | 0.00 | 0.00 | 0.00 | 57 | 1006.5 |
| 20260504220359 | 59 | 94 | 1.7 | 4.3 | 0.00 | 0.00 | 0.00 | 57 | 1006.3 |
| 20260504215859 | 60 | 146 | 2.6 | 7.0 | 0.00 | 0.00 | 0.00 | 55 | 1006.3 |
| 20260504215323 | 61 | 143 | 2.6 | 7.0 | 0.00 | 0.00 | 0.00 | 53 | 1006.2 |
| 20260504214828 | 62 | 148 | 3.5 | 7.8 | 0.00 | 0.00 | 0.00 | 52 | 1006.2 |
| 20260504214352 | 63 | 178 | 1.7 | 8.7 | 0.00 | 0.00 | 0.00 | 51 | 1006.2 |
| 20260504213856 | 64 | 197 | 4.3 | 9.6 | 0.00 | 0.00 | 0.00 | 49 | 1006.1 |
| 20260504213358 | 65 | 200 | 2.6 | 7.8 | 0.00 | 0.00 | 0.00 | 49 | 1006.1 |
| 20260504212842 | 65 | 84 | 4.3 | 7.8 | 0.00 | 0.00 | 0.00 | 49 | 1006.1 |
| 20260504212325 | 65 | 186 | 1.7 | 7.0 | 0.00 | 0.00 | 0.00 | 49 | 1006.2 |
| 20260504211850 | 66 | 177 | 3.5 | 8.7 | 0.00 | 0.00 | 0.00 | 48 | 1006.2 |
| 20260504211353 | 67 | 187 | 2.6 | 8.7 | 0.00 | 0.00 | 0.00 | 47 | 1006.3 |
| 20260504210857 | 67 | 164 | 3.5 | 7.0 | 0.00 | 0.00 | 0.00 | 46 | 1006.2 |
| 20260504210344 | 67 | 157 | 3.5 | 7.8 | 0.00 | 0.00 | 0.00 | 47 | 1006.2 |
| 20260504205823 | 67 | 178 | 3.5 | 7.8 | 0.00 | 0.04 | 0.00 | 45 | 1006.1 |
| 20260504205327 | 68 | 180 | 1.7 | 6.1 | 0.00 | 0.04 | 0.00 | 45 | 1006.1 |
| 20260504204852 | 68 | 190 | 2.6 | 7.8 | 0.00 | 0.04 | 0.00 | 45 | 1006.0 |
| 20260504204335 | 68 | 227 | 2.6 | 7.8 | 0.00 | 0.04 | 0.00 | 44 | 1005.9 |
| 20260504203900 | 68 | 163 | 4.3 | 7.8 | 0.00 | 0.04 | 0.00 | 44 | 1005.9 |
| 20260504203322 | 68 | 165 | 1.7 | 7.8 | 0.00 | 0.04 | 0.00 | 44 | 1005.8 |
| 20260504202847 | 68 | 206 | 3.5 | 7.8 | 0.00 | 0.04 | 0.00 | 47 | 1005.9 |
| 20260504202330 | 68 | 186 | 3.5 | 7.8 | 0.00 | 0.04 | 0.00 | 44 | 1005.8 |
| 20260504201855 | 67 | 115 | 2.6 | 7.8 | 0.00 | 0.04 | 0.00 | 46 | 1005.9 |
| 20260504201359 | 67 | 168 | 3.5 | 7.8 | 0.00 | 0.04 | 0.00 | 45 | 1006.0 |
| 20260504200843 | 67 | 117 | 2.6 | 7.8 | 0.00 | 0.04 | 0.00 | 45 | 1005.9 |
| 20260504200344 | 66 | 187 | 1.7 | 6.1 | 0.00 | 0.04 | 0.00 | 49 | 1005.9 |
| 20260504195824 | 66 | 126 | 2.6 | 8.7 | 0.00 | 0.09 | 0.00 | 48 | 1006.1 |
| 20260504195349 | 65 | 167 | 3.5 | 8.7 | 0.00 | 0.09 | 0.00 | 49 | 1006.1 |
| 20260504194854 | 64 | 157 | 3.5 | 6.1 | 0.00 | 0.09 | 0.00 | 50 | 1006.1 |
| 20260504194357 | 64 | 183 | 2.6 | 7.8 | 0.00 | 0.09 | 0.00 | 52 | 1006.0 |
| 20260504193821 | 63 | 184 | 0.9 | 7.8 | 0.00 | 0.09 | 0.00 | 50 | 1006.0 |
| 20260504193326 | 63 | 235 | 2.6 | 7.8 | 0.00 | 0.09 | 0.00 | 49 | 1006.0 |
| 20260504192851 | 62 | 204 | 2.6 | 7.8 | 0.00 | 0.09 | 0.00 | 51 | 1006.0 |
| 20260504192354 | 62 | 199 | 0.0 | 5.2 | 0.00 | 0.09 | 0.00 | 53 | 1006.2 |
| 20260504191836 | 62 | 155 | 0.9 | 5.2 | 0.00 | 0.09 | 0.00 | 53 | 1006.4 |
| 20260504191325 | 61 | 168 | 1.7 | 5.2 | 0.00 | 0.09 | 0.00 | 53 | 1006.4 |
| 20260504190830 | 61 | 148 | 2.6 | 5.2 | 0.00 | 0.09 | 0.00 | 55 | 1006.5 |
| 20260504190355 | 60 | 156 | 2.6 | 4.3 | 0.00 | 0.09 | 0.00 | 55 | 1006.6 |
| 20260504185855 | 60 | 160 | 0.0 | 3.5 | 0.00 | 0.16 | 0.00 | 57 | 1006.6 |
| 20260504185339 | 60 | 160 | 1.7 | 4.3 | 0.00 | 0.16 | 0.00 | 54 | 1006.6 |
| 20260504184823 | 60 | 174 | 0.9 | 6.1 | 0.00 | 0.16 | 0.00 | 54 | 1006.6 |
| 20260504184347 | 60 | 234 | 3.5 | 7.8 | 0.00 | 0.16 | 0.00 | 52 | 1006.6 |
| 20260504183851 | 61 | 176 | 3.5 | 8.7 | 0.00 | 0.16 | 0.00 | 50 | 1006.7 |
| 20260504183355 | 61 | 186 | 3.5 | 9.6 | 0.00 | 0.16 | 0.00 | 51 | 1006.6 |
| 20260504182838 | 61 | 205 | 4.3 | 9.6 | 0.00 | 0.16 | 0.00 | 50 | 1006.7 |
| 20260504182322 | 61 | 231 | 1.7 | 10.4 | 0.00 | 0.16 | 0.00 | 52 | 1006.6 |
| 20260504181848 | 61 | 215 | 4.3 | 11.3 | 0.00 | 0.16 | 0.00 | 51 | 1006.7 |
| 20260504181351 | 60 | 187 | 4.3 | 11.3 | 0.00 | 0.16 | 0.00 | 53 | 1006.5 |
| 20260504180855 | 60 | 182 | 2.6 | 9.6 | 0.00 | 0.16 | 0.00 | 53 | 1006.5 |
| 20260504180400 | 60 | 163 | 2.6 | 9.6 | 0.00 | 0.16 | 0.00 | 55 | 1006.3 |
| 20260504175900 | 59 | 159 | 1.7 | 7.0 | 0.00 | 0.25 | 0.00 | 54 | 1006.2 |
| 20260504175344 | 59 | 108 | 2.6 | 7.0 | 0.00 | 0.25 | 0.00 | 55 | 1006.2 |
| 20260504174848 | 60 | 169 | 2.6 | 8.7 | 0.00 | 0.25 | 0.00 | 54 | 1006.2 |
| 20260504174330 | 60 | 178 | 2.6 | 8.7 | 0.00 | 0.25 | 0.00 | 52 | 1006.2 |
| 20260504173835 | 61 | 165 | 3.5 | 9.6 | 0.00 | 0.25 | 0.00 | 52 | 1006.2 |
| 20260504173323 | 62 | 189 | 5.2 | 13.9 | 0.00 | 0.25 | 0.00 | 49 | 1006.2 |
| 20260504172828 | 63 | 159 | 4.3 | 13.9 | 0.00 | 0.25 | 0.00 | 48 | 1006.2 |
| 20260504172353 | 63 | 174 | 5.2 | 10.4 | 0.00 | 0.25 | 0.00 | 48 | 1006.1 |
| 20260504171856 | 63 | 132 | 5.2 | 14.8 | 0.00 | 0.25 | 0.00 | 47 | 1006.2 |
| 20260504171400 | 63 | 154 | 5.2 | 14.8 | 0.00 | 0.25 | 0.00 | 47 | 1006.2 |
| 20260504170823 | 63 | 155 | 6.1 | 14.8 | 0.00 | 0.25 | 0.00 | 47 | 1006.2 |
| 20260504170328 | 62 | 210 | 3.5 | 12.2 | 0.00 | 0.25 | 0.00 | 49 | 1006.1 |
| 20260504160321 | 63 | 182 | 4.3 | 13.0 | 0.00 | 0.34 | 0.00 | 53 | 1006.5 |
| 20260504150843 | 62 | 134 | 6.1 | 12.2 | 0.00 | 0.45 | 0.00 | 50 | 1007.5 |
| 20260504150326 | 62 | 176 | 4.3 | 12.2 | 0.00 | 0.45 | 0.00 | 51 | 1007.5 |
| 20260504141330 | 61 | 159 | 3.5 | 8.7 | 0.00 | 0.55 | 0.00 | 50 | 1007.7 |
| 20260504140856 | 61 | 173 | 2.6 | 8.7 | 0.00 | 0.55 | 0.00 | 49 | 1007.8 |
| 20260504140359 | 61 | 215 | 3.5 | 8.7 | 0.00 | 0.55 | 0.00 | 47 | 1007.9 |
| 20260504130323 | 58 | 180 | 5.2 | 12.2 | 0.00 | 0.66 | 0.00 | 45 | 1008.4 |
| 20260504110346 | 50 | 153 | 2.6 | 7.0 | 0.00 | 0.84 | 0.00 | 62 | 1008.4 |
| 20260504100331 | 42 | 215 | 0.9 | 5.2 | 0.00 | 0.93 | 0.00 | 77 | 1008.0 |
| 20260504081845 | 43 | 0.0 | 0.0 | 0.00 | 1.02 | 0.00 | 73 | 1007.6 | |
| 20260504081328 | 43 | 0.0 | 0.0 | 0.00 | 1.02 | 0.00 | 73 | 1007.5 | |
| 20260504080853 | 42 | 0.0 | 0.0 | 0.00 | 1.02 | 0.00 | 73 | 1007.5 | |
| 20260504080355 | 42 | 0.0 | 0.0 | 0.00 | 1.02 | 0.00 | 73 | 1007.5 | |
| 20260504070324 | 42 | 0.0 | 0.0 | 0.00 | 1.09 | 0.00 | 73 | 1007.0 | |
| 20260504050338 | 42 | 0.0 | 0.0 | 0.00 | 1.17 | 0.00 | 72 | 1006.2 | |
| 20260504045859 | 42 | 0.0 | 0.0 | 0.00 | 1.17 | 1.17 | 72 | 1006.2 | |
| 20260504045343 | 43 | 0.0 | 0.0 | 0.00 | 1.17 | 1.17 | 72 | 1006.2 | |
| 20260504044830 | 42 | 0.0 | 0.0 | 0.00 | 1.17 | 1.17 | 72 | 1006.1 | |
| 20260504044335 | 43 | 0.0 | 0.0 | 0.00 | 1.17 | 1.17 | 72 | 1006.2 | |
| 20260504043840 | 43 | 0.0 | 0.0 | 0.00 | 1.17 | 1.17 | 72 | 1006.1 | |
| 20260504043344 | 43 | 0.0 | 0.0 | 0.00 | 1.17 | 1.17 | 72 | 1006.1 | |
| 20260504042850 | 43 | 0.0 | 0.0 | 0.00 | 1.17 | 1.17 | 72 | 1006.1 | |
| 20260504042333 | 43 | 0.0 | 0.0 | 0.00 | 1.17 | 1.17 | 71 | 1006.1 | |
| 20260504041858 | 43 | 0.0 | 0.0 | 0.00 | 1.17 | 1.17 | 71 | 1006.0 | |
| 20260504041321 | 43 | 0.0 | 0.0 | 0.00 | 1.17 | 1.17 | 71 | 1006.0 | |
| 20260504040846 | 43 | 0.0 | 0.0 | 0.00 | 1.17 | 1.17 | 71 | 1006.0 | |
| 20260504040349 | 43 | 0.0 | 0.0 | 0.00 | 1.17 | 1.17 | 71 | 1005.9 | |
| 20260504035850 | 43 | 0.0 | 0.0 | 0.00 | 1.17 | 1.17 | 72 | 1005.9 | |
| 20260504035354 | 43 | 0.0 | 0.0 | 0.00 | 1.17 | 1.17 | 72 | 1005.8 | |
| 20260504034857 | 43 | 0.0 | 0.0 | 0.00 | 1.17 | 1.17 | 73 | 1005.7 | |
| 20260504034340 | 43 | 0.0 | 0.0 | 0.00 | 1.17 | 1.17 | 73 | 1005.7 | |
| 20260504033825 | 43 | 0.0 | 0.0 | 0.00 | 1.17 | 1.17 | 73 | 1005.8 | |
| 20260504033329 | 43 | 0.0 | 0.0 | 0.00 | 1.17 | 1.17 | 73 | 1005.7 | |
| 20260504032854 | 43 | 0.0 | 0.0 | 0.00 | 1.17 | 1.17 | 72 | 1005.6 | |
| 20260504032337 | 44 | 0.0 | 0.0 | 0.00 | 1.17 | 1.17 | 71 | 1005.7 | |
| 20260504031826 | 44 | 0.0 | 0.0 | 0.00 | 1.17 | 1.17 | 71 | 1005.6 | |
| 20260504031331 | 44 | 0.0 | 0.0 | 0.00 | 1.17 | 1.17 | 70 | 1005.5 | |
| 20260504030836 | 44 | 0.0 | 0.0 | 0.00 | 1.17 | 1.17 | 69 | 1005.5 | |
| 20260504030341 | 44 | 0.0 | 0.0 | 0.00 | 1.17 | 1.17 | 68 | 1005.5 | |
| 20260504025821 | 45 | 0.0 | 0.0 | 0.00 | 1.17 | 1.17 | 67 | 1005.4 | |
| 20260504025346 | 45 | 0.0 | 0.0 | 0.00 | 1.17 | 1.17 | 65 | 1005.3 | |
| 20260504024850 | 46 | 0.0 | 0.0 | 0.00 | 1.17 | 1.17 | 65 | 1005.3 | |
| 20260504024333 | 46 | 0.0 | 0.0 | 0.00 | 1.17 | 1.17 | 64 | 1005.3 | |
| 20260504023858 | 46 | 0.0 | 0.0 | 0.00 | 1.17 | 1.17 | 63 | 1005.3 | |
| 20260504023342 | 46 | 0.0 | 0.0 | 0.00 | 1.17 | 1.17 | 62 | 1005.3 | |
| 20260504022827 | 46 | 0.0 | 0.0 | 0.00 | 1.17 | 1.17 | 63 | 1005.2 | |
| 20260504022331 | 46 | 0.0 | 0.0 | 0.00 | 1.17 | 1.17 | 63 | 1005.2 | |
| 20260504021856 | 46 | 0.0 | 0.0 | 0.00 | 1.17 | 1.17 | 63 | 1005.2 | |
| 20260504021339 | 46 | 0.0 | 0.0 | 0.00 | 1.17 | 1.17 | 64 | 1005.1 | |
| 20260504020844 | 46 | 0.0 | 0.0 | 0.00 | 1.17 | 1.17 | 64 | 1005.1 | |
| 20260504015858 | 47 | 0.0 | 0.0 | 0.00 | 1.17 | 1.17 | 63 | 1005.0 | |
| 20260504015401 | 47 | 0.0 | 0.0 | 0.00 | 1.17 | 1.17 | 63 | 1005.0 | |
| 20260504014824 | 47 | 0.0 | 0.0 | 0.00 | 1.17 | 1.17 | 64 | 1004.9 | |
| 20260504014329 | 47 | 0.0 | 0.0 | 0.00 | 1.17 | 1.17 | 65 | 1004.8 | |
| 20260504013348 | 47 | 0.0 | 0.0 | 0.00 | 1.17 | 1.17 | 68 | 1004.7 | |
| 20260504012851 | 47 | 0.0 | 0.0 | 0.00 | 1.17 | 1.17 | 67 | 1004.6 | |
| 20260504012334 | 47 | 0.0 | 0.0 | 0.00 | 1.17 | 1.17 | 68 | 1004.5 | |
| 20260504011859 | 47 | 0.0 | 0.0 | 0.00 | 1.17 | 1.17 | 71 | 1004.4 |